Weather History for Poughkeepsie, NY

Change the Weather History Date:

Thursday, February 21, 2013

  Actual Average Record
Temperature  
Mean Temperature 28 °F 30 °F  
Max Temperature 33 °F 41 °F 67 °F (1953)
Min Temperature 23 °F 19 °F -9 °F (1972)
Degree Days  
Heating Degree Days 37 35  
Month to date heating degree days 768 779  
Since 1 July heating degree days 3919 4331  
Cooling Degree Days 0 0  
Month to date cooling degree days 0 0  
Year to date cooling degree days 0 0  
Moisture  
Dew Point 12 °F    
Average Humidity 56    
Maximum Humidity 68    
Minimum Humidity 43    
Precipitation  
Precipitation 0.00 in 0.10 in 1.33 in (1989)
Month to date precipitation 0.73 1.95  
Year to date precipitation 2.78 5.03  
Sea Level Pressure  
Sea Level Pressure 30.06 in    
Wind  
Wind Speed 10 mph (WNW)    
Max Wind Speed 21 mph    
Max Gust Speed 29 mph    
Visibility 10 miles    
Events      
T = Trace of Precipitation, MM = Missing Value Source: NWS Daily Summary

Daily Weather History Graph

Daily Weather History Graph

Search for Another Location

Airport:

Trip Planner

Search our weather history database for the weather conditions in past years. The results will help you decide how hot, cold, wet, or windy it might be!

Date:

Astronomy

Feb. 21, 2013 Rise Set
Actual Time 6:42 AM EST 5:36 PM EST
Civil Twilight 6:13 AM EST 6:04 PM EST
Nautical Twilight 5:41 AM EST 6:37 PM EST
Astronomical Twilight 5:09 AM EST 7:09 PM EST
Moon 1:47 PM EST (2/21) 3:47 AM EST (2/21)
Length of Visible Light 11h 50m
Length of Day
10h 54m
Waxing Gibbous, 83% of the Moon is Illuminated
Feb 21
Waxing Gibbous
Feb 25
Full
Mar 4
Last Quarter
Mar 11
New
Mar 19
First Quarter

Hourly Weather History & Observations

Time (EST) Temp. Windchill Dew Point Humidity Pressure Visibility Wind Dir Wind Speed Gust Speed Precip Events Conditions
12:53 AM 25.0 °F 14.2 °F 10.9 °F 55% 29.94 in 10.0 mi WNW 11.5 mph 18.4 mph N/A   Clear
1:53 AM 25.0 °F 17.1 °F 10.9 °F 55% 29.94 in 10.0 mi WSW 6.9 mph - N/A   Partly Cloudy
2:53 AM 24.1 °F 13.7 °F 10.9 °F 57% 29.92 in 10.0 mi West 10.4 mph - N/A   Scattered Clouds
3:53 AM 25.0 °F 14.8 °F 12.0 °F 58% 29.93 in 10.0 mi West 10.4 mph - N/A   Overcast
4:53 AM 24.1 °F 11.0 °F 10.9 °F 57% 29.94 in 10.0 mi West 16.1 mph 21.9 mph N/A   Overcast
5:53 AM 24.1 °F 13.1 °F 10.9 °F 57% 29.96 in 10.0 mi West 11.5 mph 19.6 mph N/A   Overcast
6:53 AM 24.1 °F 13.7 °F 10.9 °F 57% 29.95 in 10.0 mi West 10.4 mph - N/A   Scattered Clouds
7:53 AM 25.0 °F 13.6 °F 10.0 °F 53% 29.96 in 10.0 mi West 12.7 mph 18.4 mph N/A   Clear
9:53 AM 28.9 °F 19.8 °F 10.9 °F 47% 29.97 in 10.0 mi WNW 10.4 mph 23.0 mph N/A   Mostly Cloudy
10:53 AM 30.0 °F 19.5 °F 10.9 °F 45% 29.97 in 10.0 mi West 13.8 mph 25.3 mph N/A   Partly Cloudy
11:53 AM 30.0 °F 18.7 °F 10.9 °F 45% 29.99 in 10.0 mi West 16.1 mph 20.7 mph N/A   Mostly Cloudy
12:53 PM 32.0 °F 21.6 °F 12.9 °F 45% 29.98 in 10.0 mi NW 15.0 mph 24.2 mph N/A   Mostly Cloudy
1:53 PM 33.1 °F 23.4 °F 14.0 °F 46% 29.98 in 10.0 mi NW 13.8 mph 20.7 mph N/A   Clear
2:53 PM 32.0 °F 23.6 °F 12.9 °F 45% 30.01 in 10.0 mi NNW 10.4 mph 20.7 mph N/A   Clear
3:53 PM 32.0 °F 21.6 °F 14.0 °F 48% 30.05 in 10.0 mi NW 15.0 mph 20.7 mph N/A   Partly Cloudy
4:53 PM 30.0 °F 19.1 °F 12.9 °F 49% 30.10 in 10.0 mi NNW 15.0 mph 23.0 mph N/A   Mostly Cloudy
5:53 PM 27.0 °F 18.0 °F 12.0 °F 53% 30.13 in 10.0 mi WNW 9.2 mph - N/A   Clear
6:53 PM 26.1 °F 17.6 °F 12.0 °F 55% 30.17 in 10.0 mi NW 8.1 mph - N/A   Clear
7:53 PM 25.0 °F 20.7 °F 12.0 °F 58% 30.22 in 10.0 mi North 3.5 mph - N/A   Clear
8:53 PM 24.1 °F 19.7 °F 12.9 °F 62% 30.28 in 10.0 mi NNW 3.5 mph - N/A   Mostly Cloudy
9:53 PM 24.1 °F - 14.0 °F 65% 30.30 in 10.0 mi Calm Calm - N/A   Mostly Cloudy
10:53 PM 23.0 °F - 14.0 °F 68% 30.30 in 10.0 mi Calm Calm - N/A   Scattered Clouds
11:53 PM 23.0 °F - 12.9 °F 65% 30.34 in 10.0 mi Calm Calm - N/A   Mostly Cloudy